Regional Weather Roundup
Issued by NWS

Home | Current Version | Previous Version | Text Only | Print | Product List | Glossary On
Versions: 1 2 3 4 5 6 7 8 9 10 11 12 13 14 15 16 17 18 19 20 21 22 23 24 25 26 27 28 29 30 31 32 33 34 35 36 37 38 39 40 41 42 43 44 45 46 47 48 49 50
000
ASCA42 TJSJ 191011
RWRPR
PUERTO RICO/U.S. VIRGIN ISLANDS HOURLY WEATHER ROUNDUP
NATIONAL WEATHER SERVICE SAN JUAN PR
600 AM AST SAT APR 19 2014

PRZ001-004-191100-
PUERTO RICO

CITY           SKY/WX    TMP DP  RH WIND       PRES   REMARKS
SAN JUAN LMM   RAIN      75  73  94 E13G18    30.04R VSB 1
CEIBA          MOCLDY    77  72  83 E9        30.06R
$$

PRZ006-007-191100-
U.S. VIRGIN ISLANDS

CITY           SKY/WX    TMP DP  RH WIND       PRES   REMARKS
CHARLOTTE AMA  CLEAR     75  72  88 E10       30.03R
CHRISTIANSTED  MOCLDY    75  70  83 NE9       30.03R
$$

HOURLY WEATHER ROUNDUP FOR THE NEWS MEDIA

CITY           SKY/WX    TMP DP  RH WIND       PRES   REMARKS
MIAMI          TSTM      77  74  90 S7        29.92S
ORLANDO        PTCLDY    68  67  96 SW7       29.90R
NEW YORK       MOCLDY    40  36  86 SW7       30.25S
NEWARK         MOCLDY    40  35  83 SW7       30.24S
CHICAGO        CLEAR     38  27  64 NE6       30.36R WCI  33
HARTFORD       PTCLDY    37  34  89 SW5       30.19F WCI  33
BOSTON         PTCLDY    39  31  72 SW10      30.18S WCI  32
DALLAS         MOCLDY    60  48  64 SE10      30.12F
PHILADELPHIA   MOCLDY    43  37  79 SW3       30.26R



USA.gov is the U.S. government's official web portal to all federal, state and local government web resources and services.